Hourly Data Report for October 05, 2017

All times are specified in Local Standard Time (LST). Add 1 hour to adjust for Daylight Saving Time where and when it is observed.

KELOWNA UBCO
BRITISH COLUMBIA

49°56'26.700" N
119°24'00.760" W
456.00 m
1123996
71644
VKU

Download Data

Hourly Data (October 2017)
Hourly Data Report for October 5, 2017
Temp Definition
°C
Dew Point Temp Definition
°C
Rel Hum Definition
%
Wind Dir Definition
10's deg

Wind Spd Definition
km/h
Visibility Definition
km
Stn Press Definition
kPa
Hmdx Definition


Wind Chill Definition


Weather Definition


TIME
00:00 4.0 -0.3 74       96.96     LegendNANA
01:00 4.0 0.0 75       96.99     LegendNANA
02:00 4.1 0.4 77       96.97     LegendNANA
03:00 2.6 0.4 85       97.00     LegendNANA
04:00 3.9 0.7 80       97.00     LegendNANA
05:00 2.3 0.5 87       97.02     LegendNANA
06:00 2.4 0.2 85       97.03     LegendNANA
07:00 3.0 0.7 85       97.05     LegendNANA
08:00 7.3 0.9 64       97.05     LegendNANA
09:00 10.2 1.3 54       97.03     LegendNANA
10:00 12.2 1.8 49       96.98     LegendNANA
11:00 14.2 1.9 43       96.91     LegendNANA
12:00 15.0 0.7 38       96.81     LegendNANA
13:00 16.0 0.5 35       96.69     LegendNANA
14:00 17.3 -0.2 30       96.60     LegendNANA
15:00 17.6 0.5 32       96.53     LegendNANA
16:00 17.4 0.1 31       96.46     LegendNANA
17:00 14.9 0.4 37       96.42     LegendNANA
18:00 13.1 1.0 44       96.43     LegendNANA
19:00 9.5 1.3 57       96.43     LegendNANA
20:00 7.9 1.0 61       96.41     LegendNANA
21:00 7.3 0.6 62       96.39     LegendNANA
22:00 7.8 0.4 60       96.36     LegendNANA
23:00 8.1 -1.4 51       96.34     LegendNANA

Notes on Data Quality.

Legend

  • E = Estimated
  • M = Missing
  • NA = Not Available
  • ‡ = Partner data that is not subject to review by the National Climate Archives
Date modified: